When you browse on this site, cookies collect data to enhance your experience and personalize the content and advertising you see.
Visit our Privacy Policy to learn more. By continuing to use the site, you agree to this use of cookies and data.
  • In United Kingdom
  • List of Countries
  • For 7 days
  • Water Temperature
  • Weather Map
  • Weather Widgets
  • user-avatar
    Login

    Hourly Weather Sozopol

    Today, 28 February, Friday

    Time Temperature Precipitation Wind Pressure Humidity
    00:00 +5°C° 0 mm 5 mps 753 mmHg 71%
    01:00 +3°C° 0 mm 5 mps 753 mmHg 70%
    02:00 +3°C° 0 mm 6 mps 754 mmHg 68%
    03:00 +3°C° 0 mm 5 mps 754 mmHg 70%
    04:00 +3°C° 0 mm 4 mps 754 mmHg 71%
    05:00 +3°C° 0 mm 3 mps 754 mmHg 73%
    06:00 +3°C° 0 mm 3 mps 755 mmHg 71%
    07:00 +4°C° 0 mm 2 mps 755 mmHg 69%
    08:00 +5°C° 0 mm 2 mps 756 mmHg 65%
    09:00 +6°C° 0 mm 2 mps 756 mmHg 59%
    10:00 +7°C° 0 mm 2 mps 756 mmHg 53%
    11:00 +9°C° 0 mm 3 mps 755 mmHg 47%
    12:00 +9°C° 0 mm 3 mps 755 mmHg 48%
    13:00 +10°C° 0 mm 4 mps 754 mmHg 49%
    14:00 +11°C° 0 mm 4 mps 754 mmHg 51%
    15:00 +10°C° 0 mm 4 mps 753 mmHg 56%
    16:00 +10°C° 0 mm 4 mps 753 mmHg 61%
    17:00 +8°C° 0 mm 4 mps 752 mmHg 66%
    18:00 +8°C° 0 mm 4 mps 752 mmHg 68%
    19:00 +8°C° 0 mm 3 mps 753 mmHg 71%
    20:00 +7°C° 0 mm 3 mps 753 mmHg 74%
    21:00 +7°C° 0.3 mm 3 mps 753 mmHg 78%
    22:00 +6°C° 0.3 mm 4 mps 753 mmHg 82%
    23:00 +6°C° 0.3 mm 4 mps 753 mmHg 87%

    Tomorrow, 29 February, Saturday

    Time Temperature Precipitation Wind Pressure Humidity
    00:00 +5°C° 0.6 mm 5 mps 753 mmHg 87%
    01:00 +4°C° 0.6 mm 6 mps 753 mmHg 88%
    02:00 +4°C° 0.6 mm 7 mps 753 mmHg 88%
    03:00 +2°C° 0.8 mm 8 mps 753 mmHg 89%
    04:00 +2°C° 0.8 mm 9 mps 753 mmHg 89%
    05:00 +2°C° 0.8 mm 9 mps 754 mmHg 90%
    06:00 +2°C° 0.2 mm 9 mps 755 mmHg 89%
    07:00 +2°C° 0.2 mm 9 mps 755 mmHg 88%
    08:00 +2°C° 0.2 mm 9 mps 756 mmHg 87%
    09:00 +4°C° 0 mm 8 mps 757 mmHg 84%
    10:00 +4°C° 0 mm 8 mps 758 mmHg 82%
    11:00 +5°C° 0 mm 7 mps 758 mmHg 79%
    12:00 +5°C° 0.1 mm 7 mps 759 mmHg 76%
    13:00 +5°C° 0.1 mm 6 mps 759 mmHg 73%
    14:00 +7°C° 0.1 mm 5 mps 759 mmHg 70%
    15:00 +7°C° 0.1 mm 5 mps 760 mmHg 70%
    16:00 +7°C° 0.1 mm 4 mps 760 mmHg 70%
    17:00 +8°C° 0.1 mm 3 mps 760 mmHg 70%
    18:00 +7°C° 0 mm 3 mps 761 mmHg 73%
    19:00 +6°C° 0 mm 2 mps 761 mmHg 77%
    20:00 +6°C° 0 mm 1 mps 762 mmHg 80%
    21:00 +5°C° 0 mm 1 mps 762 mmHg 81%
    22:00 +5°C° 0 mm 1 mps 762 mmHg 82%
    23:00 +5°C° 0 mm 1 mps 762 mmHg 83%

    Day after tomorrow, 1 March, Sunday

    Time Temperature Precipitation Wind Pressure Humidity
    00:00 +5°C° 0 mm 1 mps 762 mmHg 84%
    01:00 +4°C° 0 mm 1 mps 762 mmHg 85%
    02:00 +4°C° 0 mm 1 mps 762 mmHg 86%
    03:00 +3°C° 0 mm 2 mps 762 mmHg 86%
    04:00 +3°C° 0 mm 2 mps 762 mmHg 86%
    05:00 +3°C° 0 mm 2 mps 761 mmHg 86%
    06:00 +3°C° 0 mm 2 mps 761 mmHg 84%
    07:00 +4°C° 0 mm 2 mps 761 mmHg 82%
    08:00 +4°C° 0 mm 2 mps 761 mmHg 80%
    09:00 +6°C° 0 mm 2 mps 761 mmHg 72%
    10:00 +7°C° 0 mm 3 mps 762 mmHg 64%
    11:00 +9°C° 0 mm 3 mps 762 mmHg 56%
    12:00 +10°C° 0 mm 4 mps 761 mmHg 54%
    13:00 +10°C° 0 mm 4 mps 761 mmHg 53%
    14:00 +10°C° 0 mm 5 mps 760 mmHg 52%
    15:00 +10°C° 0 mm 5 mps 760 mmHg 56%
    16:00 +9°C° 0 mm 5 mps 759 mmHg 61%
    17:00 +8°C° 0 mm 5 mps 759 mmHg 65%
    18:00 +7°C° 0 mm 5 mps 759 mmHg 71%
    19:00 +6°C° 0 mm 5 mps 759 mmHg 77%
    20:00 +5°C° 0 mm 5 mps 760 mmHg 83%
    21:00 +5°C° 0 mm 4 mps 759 mmHg 82%
    22:00 +4°C° 0 mm 4 mps 759 mmHg 82%
    23:00 +4°C° 0 mm 4 mps 759 mmHg 81%

    2 March, Monday

    Time Temperature Precipitation Wind Pressure Humidity
    00:00 +4°C° 0 mm 3 mps 759 mmHg 80%
    01:00 +4°C° 0 mm 3 mps 758 mmHg 79%
    02:00 +4°C° 0 mm 3 mps 758 mmHg 78%
    03:00 +4°C° 0 mm 3 mps 758 mmHg 79%
    04:00 +3°C° 0 mm 3 mps 757 mmHg 80%
    05:00 +3°C° 0 mm 3 mps 757 mmHg 81%
    06:00 +4°C° 0 mm 3 mps 757 mmHg 80%
    07:00 +4°C° 0 mm 3 mps 757 mmHg 79%
    08:00 +5°C° 0 mm 3 mps 756 mmHg 78%
    09:00 +7°C° 0 mm 4 mps 756 mmHg 74%
    10:00 +9°C° 0 mm 5 mps 756 mmHg 70%
    11:00 +11°C° 0 mm 6 mps 755 mmHg 65%
    12:00 +14°C° 0 mm 6 mps 755 mmHg 64%
    13:00 +15°C° 0 mm 6 mps 755 mmHg 64%
    14:00 +16°C° 0 mm 7 mps 754 mmHg 63%
    15:00 +15°C° 0 mm 6 mps 754 mmHg 64%
    16:00 +15°C° 0 mm 6 mps 754 mmHg 66%
    17:00 +15°C° 0 mm 6 mps 753 mmHg 68%
    18:00 +14°C° 0 mm 5 mps 754 mmHg 71%
    19:00 +13°C° 0 mm 5 mps 754 mmHg 74%
    20:00 +12°C° 0 mm 5 mps 755 mmHg 78%
    21:00 +12°C° 0 mm 5 mps 755 mmHg 79%
    22:00 +12°C° 0 mm 4 mps 755 mmHg 80%
    23:00 +12°C° 0 mm 4 mps 756 mmHg 81%

    3 March, Tuesday

    Time Temperature Precipitation Wind Pressure Humidity
    00:00 +11°C° 0 mm 4 mps 755 mmHg 82%
    01:00 +11°C° 0 mm 4 mps 755 mmHg 84%
    02:00 +11°C° 0 mm 4 mps 755 mmHg 85%
    03:00 +11°C° 0 mm 4 mps 755 mmHg 86%
    04:00 +11°C° 0 mm 3 mps 755 mmHg 87%
    05:00 +11°C° 0 mm 3 mps 755 mmHg 88%
    06:00 +11°C° 0 mm 3 mps 756 mmHg 87%
    07:00 +12°C° 0 mm 4 mps 756 mmHg 85%
    08:00 +12°C° 0 mm 4 mps 756 mmHg 84%
    09:00 +13°C° 0 mm 5 mps 756 mmHg 78%
    10:00 +15°C° 0 mm 5 mps 756 mmHg 71%
    11:00 +16°C° 0 mm 6 mps 756 mmHg 65%
    12:00 +17°C° 0 mm 6 mps 755 mmHg 61%
    13:00 +17°C° 0 mm 6 mps 755 mmHg 57%
    14:00 +19°C° 0 mm 6 mps 755 mmHg 53%
    15:00 +19°C° 0 mm 6 mps 755 mmHg 56%
    16:00 +17°C° 0 mm 5 mps 755 mmHg 58%
    17:00 +17°C° 0 mm 4 mps 754 mmHg 60%
    18:00 +17°C° 0 mm 4 mps 755 mmHg 63%
    19:00 +15°C° 0 mm 4 mps 755 mmHg 65%
    20:00 +14°C° 0 mm 4 mps 755 mmHg 67%
    21:00 +14°C° 0 mm 4 mps 755 mmHg 68%
    22:00 +14°C° 0 mm 4 mps 755 mmHg 69%
    23:00 +13°C° 0 mm 3 mps 755 mmHg 69%

    4 March, Wednesday

    Time Temperature Precipitation Wind Pressure Humidity
    00:00 +13°C° 0 mm 3 mps 755 mmHg 68%
    01:00 +13°C° 0 mm 3 mps 754 mmHg 66%
    02:00 +13°C° 0 mm 3 mps 754 mmHg 64%
    03:00 +13°C° 0 mm 3 mps 754 mmHg 65%
    04:00 +12°C° 0 mm 3 mps 754 mmHg 65%
    05:00 +12°C° 0 mm 3 mps 753 mmHg 66%
    06:00 +12°C° 0 mm 3 mps 753 mmHg 66%
    07:00 +12°C° 0 mm 3 mps 753 mmHg 65%
    08:00 +12°C° 0 mm 3 mps 753 mmHg 65%
    09:00 +14°C° 0 mm 4 mps 753 mmHg 60%
    10:00 +16°C° 0 mm 5 mps 753 mmHg 54%
    11:00 +17°C° 0 mm 6 mps 753 mmHg 48%
    12:00 +19°C° 0 mm 6 mps 753 mmHg 48%
    13:00 +19°C° 0 mm 6 mps 752 mmHg 47%
    14:00 +19°C° 0 mm 6 mps 752 mmHg 46%
    15:00 +19°C° 0 mm 5 mps 752 mmHg 50%
    16:00 +17°C° 0 mm 5 mps 751 mmHg 54%
    17:00 +17°C° 0 mm 4 mps 751 mmHg 59%
    18:00 +15°C° 0 mm 4 mps 751 mmHg 64%
    19:00 +14°C° 0 mm 4 mps 751 mmHg 70%
    20:00 +13°C° 0 mm 4 mps 751 mmHg 75%
    21:00 +13°C° 0.3 mm 4 mps 751 mmHg 78%
    22:00 +13°C° 0.3 mm 4 mps 751 mmHg 81%
    23:00 +12°C° 0.3 mm 4 mps 751 mmHg 84%
    Show more